Wind_Speed
44 44 45 46 46 47 46 47 48 48 49 48 47 46 46 45 46 46 45 45 45 47 48 49 49 51 52 54 56 57 60 61 63 64 65 65 65 65 65 64 63 62 63
45 46 47 47 47 48 48 49 49 49 49 49 48 48 48 48 48 48 47 46 47 50 52 53 53 55 56 58 59 60 61 62 64 65 64 64 64 63 62 60 60 60 60
46 46 46 46 47 48 49 50 49 50 50 50 50 50 49 50 50 49 48 49 50 53 55 57 57 57 58 59 60 61 62 62 63 62 62 62 60 59 58 57 57 56 55
45 44 45 45 46 46 47 48 49 49 50 51 51 50 51 51 50 49 51 53 54 56 58 59 59 60 60 60 61 62 62 62 61 61 59 58 57 55 54 53 53 51 50
42 42 42 42 42 43 44 45 45 46 48 48 48 49 51 52 52 52 54 56 58 59 60 61 60 60 60 61 61 61 61 60 58 56 55 53 52 51 50 49 48 47 45
39 40 41 41 42 42 42 42 42 44 46 47 48 49 50 52 53 55 57 58 59 60 61 62 62 61 60 60 59 57 56 54 53 51 49 48 47 46 45 44 43 41 38
36 37 38 38 39 40 39 40 42 43 45 46 47 49 51 53 56 57 58 59 60 61 61 61 60 59 58 56 54 51 49 46 45 43 42 41 40 40 39 38 36 35 34
34 35 36 36 37 38 39 40 42 43 45 47 48 50 52 54 55 57 57 58 59 59 58 57 57 55 53 50 46 44 41 38 36 35 34 33 33 33 32 31 30 30 31
32 33 34 35 37 38 39 39 41 42 44 45 47 49 50 51 53 54 55 55 54 53 52 50 48 45 42 39 36 34 31 30 29 28 27 27 26 26 25 26 26 26 28
29 29 30 31 33 34 35 36 38 40 42 44 45 47 48 49 49 49 49 47 45 43 41 39 36 33 30 29 27 25 24 23 22 21 21 20 20 21 21 22 23 24 26
25 26 27 28 30 31 33 34 36 38 39 41 43 44 44 44 43 41 39 37 35 32 29 26 24 22 21 19 18 17 17 16 15 15 15 15 16 17 18 20 21 22 23
23 24 24 26 27 28 29 31 32 34 35 36 37 36 35 34 32 30 27 24 21 19 17 15 14 13 12 11 11 10 10 9 9 10 11 12 14 16 17 19 20 21 22
20 20 22 23 24 25 27 28 29 31 31 31 29 27 25 23 20 18 15 13 11 9 7 6 6 5 5 5 5 5 5 6 7 8 10 11 13 15 16 18 20 20 20
18 18 19 21 22 23 25 26 26 26 26 24 23 20 17 14 12 10 8 7 5 4 4 4 5 5 5 5 5 6 6 7 7 8 9 11 13 15 16 17 18 19 19
16 17 18 19 20 21 22 22 22 21 20 18 16 14 12 9 8 7 6 7 7 7 7 7 7 7 7 6 6 6 6 7 8 8 10 11 13 14 15 16 17 18 18
14 15 16 17 18 19 19 18 18 17 16 14 12 11 9 8 8 8 9 9 10 10 10 9 8 7 7 7 6 7 7 8 8 9 10 11 13 14 15 16 16 17 17
13 14 15 15 16 16 15 15 15 14 13 11 10 10 10 10 10 11 12 12 12 12 11 10 9 8 8 7 8 8 8 8 9 10 11 12 13 14 15 15 16 16 16
11 12 13 13 13 13 13 13 12 11 10 10 10 10 11 11 11 12 12 12 12 11 11 10 9 9 8 8 8 8 9 9 9 10 11 12 13 14 15 15 15 15 15
10 10 11 11 11 11 11 11 11 10 9 9 10 11 11 11 11 11 11 11 11 11 10 10 9 9 9 9 9 9 10 10 11 12 12 13 13 14 15 14 15 15 15
8 8 8 8 9 9 9 9 9 9 9 9 10 10 11 11 11 10 10 10 11 10 10 10 10 9 9 10 10 10 11 12 12 13 13 13 13 14 14 14 14 14 15
6 6 7 7 7 8 8 8 8 8 9 9 9 9 10 10 9 10 10 10 10 10 10 10 10 10 10 10 10 11 12 13 13 13 13 13 13 14 14 14 14 14 15
5 5 6 6 6 6 7 7 7 7 8 8 8 8 8 8 8 9 9 9 9 9 10 10 10 10 10 10 11 13 13 14 14 13 13 13 13 13 14 14 14 14 15
5 5 5 5 5 5 5 5 6 6 6 6 6 6 6 7 7 7 7 8 8 9 9 9 10 10 10 11 12 13 14 14 14 14 14 14 14 14 14 14 14 14 14
4 4 4 4 4 3 3 3 4 4 4 4 4 4 4 4 5 5 6 7 7 8 8 9 10 10 11 12 13 13 14 14 14 14 14 14 14 14 14 14 14 14 14
4 4 3 3 3 2 2 2 2 2 3 3 3 3 3 4 4 4 5 5 6 7 8 9 10 11 11 12 13 13 14 14 14 14 14 14 14 14 14 14 14 14 15
4 4 3 2 2 2 2 2 1 1 1 2 2 3 3 3 4 4 4 5 6 7 7 8 10 10 11 12 12 13 14 15 15 15 15 15 14 14 14 14 15 15 15
Wind_Direction
272 275 277 279 279 281 283 283 284 285 286 286 286 284 284 283 283 281 279 279 278 277 276 276 276 277 278 279 280 279 280 281 281 283 284 284 285 286 287 288 289 290 291
274 276 277 278 280 281 282 281 282 282 282 282 282 281 280 281 280 278 278 277 279 277 276 276 277 278 278 278 279 279 280 281 283 284 285 285 286 287 288 289 290 291 292
275 277 277 278 279 280 279 280 280 279 279 279 279 278 278 278 277 277 275 274 277 279 279 278 279 278 278 279 279 280 282 283 284 284 285 286 288 289 290 290 291 292 293
274 275 276 278 278 278 277 277 276 276 275 275 276 275 274 274 276 275 275 276 278 278 278 277 278 279 279 279 280 282 283 284 285 286 287 288 290 291 292 293 293 294 295
274 274 275 277 277 277 276 275 274 274 273 274 274 274 273 275 276 276 276 277 278 278 278 278 279 279 280 281 282 283 285 286 286 287 289 290 292 292 293 294 294 295 296
274 274 274 275 275 273 272 271 270 271 273 273 273 274 276 277 277 278 279 280 280 280 280 280 280 282 283 284 285 286 286 287 288 289 291 292 292 293 294 295 296 296 296
271 272 272 271 269 268 268 268 270 273 275 276 278 279 281 281 281 281 282 282 282 283 283 283 283 283 284 285 286 287 288 289 290 291 291 292 293 295 296 297 298 298 297
271 272 271 270 272 273 274 276 278 280 281 282 283 283 283 284 284 285 285 285 285 285 285 285 285 286 287 287 288 289 290 290 290 291 292 293 295 298 299 300 300 301 301
273 274 274 277 279 281 283 285 287 288 288 289 289 289 289 288 288 287 287 287 287 287 287 287 287 288 288 289 289 289 290 290 291 292 293 297 299 300 301 303 305 306 307
278 280 283 285 287 288 290 291 292 292 293 293 293 293 292 291 290 290 289 290 290 290 290 289 290 290 290 288 288 287 288 289 292 296 299 301 302 305 308 311 313 314 315
285 287 289 291 292 293 294 296 297 298 299 299 298 297 296 295 294 294 293 293 293 293 293 293 292 291 290 288 289 290 292 294 297 301 306 309 313 317 322 325 325 325 326
292 294 294 296 298 300 302 304 306 306 306 306 305 304 302 302 301 300 299 298 298 299 299 299 298 298 297 296 297 298 300 303 309 316 322 326 330 333 334 335 336 336 336
297 298 300 302 304 305 307 309 310 312 313 313 312 312 312 312 313 313 312 311 313 316 318 317 319 321 326 332 332 335 339 341 341 341 341 342 344 346 346 344 343 344 344
299 303 307 309 310 312 315 316 316 317 319 320 320 320 322 325 329 332 337 346 0 19 31 34 34 29 30 27 23 19 15 6 1 358 356 355 355 355 353 351 350 351 351
306 309 312 315 317 320 321 323 324 325 325 328 332 336 341 348 356 8 28 47 60 67 68 66 59 53 53 50 44 37 26 16 14 14 10 5 2 360 359 357 354 355 356
310 314 318 320 323 326 328 332 335 337 339 343 351 3 16 28 43 57 65 69 72 72 71 69 67 64 60 56 53 48 41 32 28 23 16 10 7 5 4 2 0 2 3
314 320 325 327 330 335 339 343 347 353 359 8 20 33 43 54 66 74 76 76 74 71 68 65 64 63 62 55 52 49 42 35 30 22 17 12 10 9 10 8 7 9 11
318 324 329 333 339 346 353 358 3 9 19 30 42 53 61 69 78 80 80 77 71 65 61 59 59 61 60 55 53 49 42 35 28 22 18 17 16 15 14 13 13 15 19
319 327 334 340 349 358 6 13 20 29 38 49 59 67 72 77 79 78 77 73 67 62 60 57 56 57 57 56 55 49 38 31 26 21 19 19 19 19 19 19 20 23 27
323 332 341 349 359 9 18 25 33 43 53 61 69 74 76 78 77 74 71 68 63 59 56 54 54 55 57 55 50 40 31 26 22 21 21 21 23 24 23 24 26 29 32
335 343 350 358 8 18 27 35 43 53 60 67 73 77 77 76 74 71 68 64 58 54 52 50 52 55 54 48 41 32 26 23 23 24 24 24 26 27 28 30 33 35 38
344 351 357 3 10 20 32 41 49 59 65 71 76 78 76 75 73 69 64 58 54 50 48 49 52 50 45 41 34 27 25 24 24 25 26 27 28 29 31 34 37 40 42
343 348 355 359 5 16 31 42 51 60 67 70 73 75 75 71 66 61 55 50 46 43 45 46 46 42 39 34 30 28 26 25 25 27 28 30 31 32 34 36 40 42 45
343 344 346 351 359 9 23 38 47 55 62 66 64 62 61 56 49 44 41 39 40 42 43 43 42 36 33 31 29 28 26 25 27 29 30 32 33 35 37 40 43 45 48
346 344 343 345 352 358 6 21 35 42 47 48 44 39 35 32 30 30 32 37 41 43 43 42 38 33 32 30 29 28 27 28 30 32 33 35 37 39 41 44 47 50 53
3 357 349 346 352 357 357 357 1 7 17 21 20 21 24 28 31 34 40 46 47 46 43 38 34 32 30 29 30 30 30 32 32 35 37 39 42 45 48 50 52 55 58
Height
5808 5807 5807 5805 5804 5802 5800 5798 5796 5794 5792 5790 5788 5786 5785 5784 5782 5779 5777 5776 5773 5771 5769 5766 5763 5761 5758 5755 5751 5748 5744 5740 5735 5729 5725 5720 5716 5711 5706 5702 5696 5691 5685
5799 5798 5796 5795 5793 5791 5789 5787 5785 5783 5781 5779 5777 5775 5773 5772 5769 5766 5764 5762 5760 5758 5755 5752 5750 5747 5744 5740 5736 5732 5728 5724 5719 5714 5708 5704 5700 5695 5691 5686 5680 5675 5669
5788 5787 5785 5783 5782 5780 5778 5776 5774 5772 5770 5768 5765 5763 5761 5759 5756 5754 5751 5749 5747 5744 5741 5738 5735 5731 5728 5724 5720 5716 5712 5707 5702 5697 5692 5687 5683 5679 5675 5670 5665 5659 5654
5777 5776 5774 5772 5770 5768 5766 5764 5762 5759 5757 5755 5753 5750 5748 5745 5743 5741 5738 5735 5732 5730 5726 5723 5719 5715 5712 5708 5704 5700 5696 5691 5686 5682 5677 5673 5669 5665 5660 5656 5651 5645 5640
5765 5764 5762 5760 5758 5756 5754 5751 5749 5747 5744 5742 5740 5737 5734 5732 5729 5726 5723 5720 5717 5714 5710 5707 5703 5699 5695 5691 5688 5684 5679 5675 5671 5667 5663 5659 5655 5651 5646 5642 5638 5632 5627
5754 5753 5751 5749 5747 5745 5742 5740 5737 5735 5732 5730 5727 5724 5721 5718 5715 5712 5709 5705 5701 5698 5694 5690 5686 5682 5678 5675 5671 5667 5664 5661 5657 5653 5650 5646 5642 5638 5634 5630 5626 5622 5617
5744 5742 5740 5738 5736 5733 5731 5729 5726 5723 5721 5718 5714 5711 5708 5705 5701 5697 5693 5689 5685 5681 5677 5673 5669 5665 5662 5659 5656 5653 5651 5648 5645 5642 5638 5635 5631 5628 5624 5620 5616 5612 5608
5734 5732 5731 5729 5726 5723 5721 5718 5715 5712 5709 5705 5702 5698 5695 5691 5686 5682 5678 5673 5669 5664 5660 5656 5653 5649 5647 5644 5642 5641 5639 5637 5634 5632 5629 5626 5623 5620 5616 5613 5609 5605 5601
5725 5723 5721 5719 5716 5714 5711 5708 5705 5701 5697 5694 5689 5685 5681 5676 5672 5667 5662 5658 5654 5650 5646 5642 5639 5636 5634 5632 5631 5630 5629 5628 5626 5624 5621 5619 5616 5613 5610 5607 5603 5599 5595
5717 5715 5712 5710 5708 5705 5702 5698 5695 5691 5686 5682 5677 5672 5667 5662 5657 5652 5648 5644 5640 5636 5633 5629 5627 5625 5624 5623 5623 5622 5621 5621 5619 5618 5616 5614 5612 5609 5606 5602 5598 5594 5589
5709 5707 5705 5703 5700 5697 5693 5689 5685 5681 5676 5671 5665 5660 5654 5649 5644 5639 5635 5632 5628 5625 5623 5620 5619 5618 5617 5616 5616 5616 5616 5615 5615 5614 5612 5610 5608 5606 5602 5598 5594 5590 5585
5703 5701 5698 5696 5693 5689 5685 5681 5676 5671 5666 5660 5654 5648 5643 5638 5633 5629 5626 5623 5620 5618 5616 5615 5614 5613 5613 5613 5613 5612 5612 5612 5612 5611 5610 5608 5606 5603 5599 5596 5591 5587 5582
5697 5695 5693 5690 5686 5682 5678 5674 5669 5664 5658 5652 5646 5641 5635 5631 5626 5623 5620 5618 5616 5615 5614 5613 5612 5612 5612 5612 5611 5611 5611 5611 5611 5610 5609 5607 5604 5601 5597 5593 5589 5584 5580
5692 5690 5687 5684 5680 5676 5672 5667 5662 5657 5651 5646 5640 5635 5631 5627 5623 5620 5618 5617 5615 5614 5614 5613 5613 5613 5613 5612 5612 5612 5612 5611 5611 5609 5608 5606 5603 5599 5596 5592 5588 5583 5578
5688 5685 5682 5679 5675 5671 5667 5662 5657 5652 5647 5642 5637 5633 5629 5626 5623 5620 5619 5618 5616 5616 5616 5615 5615 5615 5615 5614 5614 5614 5613 5612 5611 5610 5608 5605 5602 5599 5595 5591 5587 5582 5578
5684 5681 5678 5675 5671 5667 5663 5658 5653 5649 5645 5640 5636 5633 5630 5627 5624 5623 5622 5621 5620 5619 5619 5618 5618 5618 5617 5617 5616 5615 5615 5613 5612 5610 5608 5605 5602 5599 5595 5591 5587 5582 5578
5680 5678 5675 5672 5668 5664 5660 5656 5652 5648 5644 5640 5637 5634 5632 5630 5628 5627 5626 5625 5624 5624 5623 5622 5621 5621 5620 5619 5618 5617 5616 5614 5612 5610 5608 5605 5602 5598 5595 5591 5587 5583 5579
5677 5675 5672 5669 5666 5662 5659 5655 5651 5648 5645 5642 5639 5637 5635 5633 5632 5631 5630 5629 5628 5627 5626 5625 5624 5623 5622 5621 5620 5619 5617 5615 5613 5611 5608 5605 5602 5598 5595 5591 5587 5583 5579
5675 5673 5670 5668 5665 5662 5659 5655 5652 5649 5647 5644 5642 5640 5639 5638 5636 5635 5634 5633 5632 5631 5630 5629 5627 5626 5624 5623 5622 5620 5618 5616 5614 5611 5608 5605 5602 5599 5595 5592 5588 5584 5581
5672 5670 5668 5666 5664 5661 5659 5656 5654 5651 5649 5647 5645 5644 5643 5641 5640 5639 5638 5637 5636 5634 5633 5631 5630 5628 5627 5625 5624 5622 5620 5617 5614 5612 5609 5606 5603 5599 5596 5593 5589 5586 5583
5670 5669 5667 5665 5664 5662 5659 5657 5655 5653 5651 5650 5649 5647 5646 5645 5644 5643 5641 5640 5639 5637 5636 5634 5632 5631 5629 5627 5625 5623 5621 5618 5615 5612 5609 5606 5603 5600 5597 5594 5591 5588 5585
5669 5668 5666 5665 5663 5662 5660 5658 5657 5655 5654 5653 5651 5650 5649 5648 5647 5646 5644 5643 5642 5640 5638 5636 5635 5633 5631 5629 5627 5624 5622 5619 5616 5613 5610 5607 5604 5602 5599 5596 5593 5590 5587
5667 5666 5666 5664 5663 5662 5661 5659 5658 5657 5656 5655 5654 5653 5652 5651 5649 5648 5647 5646 5644 5642 5640 5639 5637 5635 5633 5631 5628 5626 5623 5620 5617 5614 5612 5609 5606 5603 5600 5598 5595 5592 5589
5666 5666 5665 5664 5663 5662 5661 5660 5659 5658 5657 5656 5655 5654 5653 5652 5651 5650 5649 5647 5646 5644 5642 5641 5639 5637 5635 5632 5630 5627 5625 5622 5619 5616 5613 5610 5608 5605 5602 5600 5597 5595 5592
5665 5664 5664 5663 5662 5662 5661 5660 5659 5659 5658 5657 5656 5656 5655 5654 5653 5651 5650 5649 5647 5646 5644 5642 5641 5639 5636 5634 5632 5629 5626 5624 5621 5618 5615 5612 5610 5607 5605 5602 5600 5597 5595
5664 5663 5663 5662 5662 5661 5661 5660 5659 5659 5658 5658 5657 5656 5655 5654 5653 5652 5651 5650 5649 5647 5646 5644 5642 5640 5638 5636 5634 5631 5629 5626 5623 5620 5617 5615 5612 5610 5607 5605 5603 5600 5598